Location: Dover
(39.1580°N, 75.5250°W)
Time: 03:00:15
(UTC-04:00)

SeaSat 1 - Visible Passes

Search period start: 01 October 2016 00:00
Search period end: 11 October 2016 00:00
Orbit: 745 x 748 km, 108.0° (Epoch: 30 September)

Date Brightness Start Highest point End Pass type
(mag) Time Alt. Az. Time Alt. Az. Time Alt. Az.
01 Oct 5.6 05:21:53 10° NE 05:22:44 10° NE 05:23:35 10° NE visible
02 Oct 4.7 06:13:39 10° ESE 06:17:42 26° NE 06:21:48 10° N visible
03 Oct 5.4 05:34:45 10° ENE 05:36:20 11° NE 05:37:55 10° NNE visible
04 Oct 4.5 06:27:09 10° ESE 06:31:21 29° NE 06:35:33 10° N visible
05 Oct 5.3 05:47:53 10° ENE 05:49:56 13° NE 05:51:59 10° NNE visible
07 Oct 5.2 06:01:07 10° ENE 06:03:32 14° NE 06:05:58 10° NNE visible
09 Oct 5.1 06:14:25 10° E 06:17:09 15° NE 06:19:53 10° NNE visible
